sat.trackr.live / text

‹ back to catalog

STARLINK-5185

NORAD 54100 · 2022-136BB

PAYLOAD ACTIVE UNKNOWN

§ Identity

Operator
Country
US
Launch date
2022-10-20
Launch site
AFETR
Launch vehicle
Mass (kg)
RCS (m²)

Purposes: comms

External: N2YO · Heavens-Above · Gunter

§ Orbital elements

Epoch: 2026-05-25T00:49:58.806624Z

Period
95.44 min
Inclination
53.2120°
Eccentricity
0.0001086
Mean motion
15.08844651 rev/d
Perigee alt
539.0 km
Apogee alt
540.5 km
Semi-major
6,917.9 km
B*
-1.0095e-5
RAAN
351.1042°
Arg perigee
127.6178°
Mean anomaly
232.4913°
Rev number
19,851

§ Raw data

STARLINK-51851 54100U 22136BB  26145.03470841 -.00000448  00000+0 -10095-4 0  99952 54100  53.2120 351.1042 0001086 127.6178 232.4913 15.08844651198518

JSON: /api/v1/satellites/54100 · /tle

For live sub-satellite position, see the globe view (requires WebGL).

§ Visibility from observer

Set your observer location to see the next 7 days of passes ≥ 10°. The values pass through the URL so the page stays shareable.

No JS? Fill the form by hand. The geolocation button needs JavaScript.